R21 EFTP-EFTP

Flight info

Callsign R21
Flight time 0h 36m
Altitude 1500
Route TC
Aircraft HAWK/M-SDGIRY/C

Departure

Time 2026-05-05 15:38
Airport Tampere-Pirkkala Airport (EFTP)

Arrival

Time 2026-05-05 16:15
Airport Tampere-Pirkkala Airport (EFTP)
Time Latitude Longitude Altitude Speed Heading
2026-05-05 15:32 61.41302 23.62588 383 ft 0 kts 293°
2026-05-05 15:35 61.41313 23.62535 384 ft 8 kts 302°
2026-05-05 15:35 61.41374 23.62546 383 ft 14 kts 353°
2026-05-05 15:35 61.41473 23.62556 383 ft 13 kts 22°
2026-05-05 15:36 61.41550 23.62625 382 ft 11 kts 22°
2026-05-05 15:36 61.41624 23.62688 378 ft 12 kts 22°
2026-05-05 15:36 61.41711 23.62762 372 ft 14 kts 23°
2026-05-05 15:36 61.41795 23.62836 371 ft 12 kts 21°
2026-05-05 15:37 61.41823 23.62852 370 ft 0 kts 359°
2026-05-05 15:37 61.41847 23.62839 369 ft 14 kts 338°
2026-05-05 15:37 61.41925 23.62678 368 ft 12 kts 285°
2026-05-05 15:37 61.41913 23.62612 368 ft 2 kts 244°
2026-05-05 15:38 61.41776 23.62007 371 ft 99 kts 244°
2026-05-05 15:38 61.41347 23.60109 725 ft 184 kts 247°
2026-05-05 15:38 61.40667 23.57087 1081 ft 265 kts 238°
2026-05-05 15:38 61.39056 23.56667 908 ft 258 kts 156°
2026-05-05 15:39 61.37943 23.59230 845 ft 251 kts 97°
2026-05-05 15:39 61.38160 23.61526 944 ft 244 kts 69°
2026-05-05 15:39 61.38765 23.64914 993 ft 253 kts 66°
2026-05-05 15:39 61.39499 23.68328 1022 ft 257 kts 50°
2026-05-05 15:40 61.40917 23.68995 999 ft 196 kts 331°
2026-05-05 15:40 61.42030 23.67825 972 ft 166 kts 327°
2026-05-05 15:40 61.42689 23.66363 788 ft 128 kts 263°
2026-05-05 15:40 61.42339 23.64536 619 ft 155 kts 247°
2026-05-05 15:41 61.41850 23.62359 378 ft 159 kts 245°
2026-05-05 15:41 61.41358 23.60233 809 ft 181 kts 245°
2026-05-05 15:41 61.40705 23.57474 1651 ft 248 kts 246°
2026-05-05 15:41 61.39255 23.55945 1733 ft 272 kts 160°
2026-05-05 15:42 61.37787 23.58292 1723 ft 268 kts 119°
2026-05-05 15:42 61.37956 23.61924 1646 ft 259 kts 65°
2026-05-05 15:42 61.38633 23.65373 1711 ft 258 kts 65°
2026-05-05 15:42 61.39344 23.68837 1606 ft 257 kts 60°
2026-05-05 15:43 61.40628 23.70018 1428 ft 194 kts 333°
2026-05-05 15:43 61.41755 23.68808 1183 ft 170 kts 327°
2026-05-05 15:43 61.42707 23.67655 939 ft 140 kts 307°
2026-05-05 15:43 61.42665 23.66049 702 ft 117 kts 246°
2026-05-05 15:44 61.42298 23.64403 636 ft 135 kts 249°
2026-05-05 15:44 61.41923 23.62700 402 ft 117 kts 247°
2026-05-05 15:44 61.41588 23.61187 438 ft 131 kts 247°
2026-05-05 15:44 61.41126 23.59040 1033 ft 198 kts 248°
2026-05-05 15:45 61.40427 23.56018 1830 ft 258 kts 232°
2026-05-05 15:45 61.38767 23.55654 1963 ft 261 kts 158°
2026-05-05 15:45 61.37405 23.57898 1866 ft 258 kts 105°
2026-05-05 15:45 61.37882 23.61522 1765 ft 282 kts 62°
2026-05-05 15:46 61.38789 23.65339 1655 ft 297 kts 61°
2026-05-05 15:46 61.39732 23.69142 1529 ft 292 kts 60°
2026-05-05 15:46 61.41150 23.70456 1389 ft 217 kts 337°
2026-05-05 15:46 61.42465 23.69380 1135 ft 181 kts 324°
2026-05-05 15:47 61.42917 23.67440 973 ft 143 kts 259°
2026-05-05 15:47 61.42573 23.65657 725 ft 126 kts 249°
2026-05-05 15:47 61.42244 23.64038 561 ft 118 kts 249°
2026-05-05 15:47 61.41899 23.62575 382 ft 108 kts 247°
2026-05-05 15:48 61.41578 23.61147 433 ft 125 kts 246°
2026-05-05 15:48 61.41120 23.59133 1064 ft 186 kts 247°
2026-05-05 15:48 61.40457 23.56194 1614 ft 244 kts 240°
2026-05-05 15:48 61.38974 23.56002 1660 ft 239 kts 155°
2026-05-05 15:49 61.37885 23.58337 1502 ft 230 kts 95°
2026-05-05 15:49 61.38297 23.61537 1387 ft 245 kts 65°
2026-05-05 15:49 61.38997 23.65053 1430 ft 276 kts 64°
2026-05-05 15:49 61.39790 23.68783 1348 ft 282 kts 63°
2026-05-05 15:50 61.40670 23.72209 1329 ft 247 kts 24°
2026-05-05 15:50 61.42065 23.71735 1356 ft 193 kts 322°
2026-05-05 15:50 61.43036 23.70079 1197 ft 164 kts 302°
2026-05-05 15:50 61.43150 23.68072 965 ft 138 kts 248°
2026-05-05 15:51 61.42736 23.66358 745 ft 127 kts 246°
2026-05-05 15:51 61.42346 23.64690 631 ft 136 kts 246°
2026-05-05 15:51 61.41969 23.62876 434 ft 131 kts 246°
2026-05-05 15:51 61.41572 23.61151 540 ft 149 kts 246°
2026-05-05 15:52 61.41022 23.58706 1176 ft 224 kts 247°
2026-05-05 15:52 61.40832 23.55296 1785 ft 271 kts 310°
2026-05-05 15:52 61.42602 23.55371 1806 ft 300 kts 37°
2026-05-05 15:52 61.44095 23.58493 1801 ft 300 kts 41°
2026-05-05 15:53 61.45542 23.61495 1644 ft 285 kts 41°
2026-05-05 15:53 61.46924 23.64311 1631 ft 267 kts 39°
2026-05-05 15:53 61.48277 23.66876 1592 ft 259 kts 38°
2026-05-05 15:53 61.49642 23.69323 1460 ft 258 kts 38°
2026-05-05 15:54 61.50938 23.71929 1251 ft 261 kts 45°
2026-05-05 15:54 61.51995 23.74944 1384 ft 243 kts 46°
2026-05-05 15:54 61.53314 23.76881 1576 ft 227 kts 10°
2026-05-05 15:54 61.54904 23.76934 1761 ft 240 kts 350°
2026-05-05 15:55 61.56642 23.76520 1895 ft 267 kts 349°
2026-05-05 15:55 61.58492 23.75968 1890 ft 268 kts 347°
2026-05-05 15:55 61.60323 23.75337 1714 ft 269 kts 346°
2026-05-05 15:55 61.62126 23.75413 1694 ft 269 kts 26°
2026-05-05 15:56 61.63758 23.77037 1796 ft 246 kts 352°
2026-05-05 15:56 61.64658 23.74720 1924 ft 233 kts 257°
2026-05-05 15:56 61.63265 23.73490 1877 ft 268 kts 154°
2026-05-05 15:56 61.62842 23.76947 1874 ft 271 kts 53°
2026-05-05 15:57 61.64474 23.78395 1966 ft 267 kts
2026-05-05 15:57 61.66328 23.79219 2125 ft 279 kts
2026-05-05 15:57 61.68276 23.79955 2221 ft 285 kts
2026-05-05 15:57 61.69534 23.82815 2208 ft 292 kts 91°
2026-05-05 15:58 61.68337 23.85583 2174 ft 265 kts 182°
2026-05-05 15:58 61.66654 23.84363 1974 ft 257 kts 207°
2026-05-05 15:58 61.65013 23.82849 1882 ft 258 kts 206°
2026-05-05 15:58 61.63359 23.81407 1869 ft 255 kts 205°
2026-05-05 15:59 61.61849 23.82588 1946 ft 260 kts 110°
2026-05-05 15:59 61.62469 23.85685 1981 ft 245 kts 19°
2026-05-05 15:59 61.63909 23.84809 2151 ft 232 kts 296°
2026-05-05 15:59 61.63437 23.81747 1987 ft 259 kts 217°
2026-05-05 16:00 61.61765 23.79937 1910 ft 279 kts 211°
2026-05-05 16:00 61.60049 23.78033 1815 ft 276 kts 211°
2026-05-05 16:00 61.58294 23.76691 1694 ft 266 kts 193°
2026-05-05 16:00 61.56480 23.76461 1586 ft 256 kts 186°
2026-05-05 16:01 61.54727 23.76255 1573 ft 248 kts 190°
2026-05-05 16:01 61.53072 23.75496 1476 ft 241 kts 203°
2026-05-05 16:01 61.51642 23.73934 1396 ft 233 kts 219°
2026-05-05 16:01 61.50533 23.71583 1348 ft 226 kts 232°
2026-05-05 16:02 61.49511 23.69111 1342 ft 222 kts 235°
2026-05-05 16:02 61.48507 23.66679 1333 ft 220 kts 230°
2026-05-05 16:02 61.47217 23.65067 1388 ft 220 kts 193°
2026-05-05 16:02 61.45868 23.66023 1313 ft 201 kts 148°
2026-05-05 16:03 61.44794 23.67558 1153 ft 174 kts 151°
2026-05-05 16:03 61.43800 23.68556 1000 ft 140 kts 178°
2026-05-05 16:03 61.43109 23.67857 852 ft 114 kts 243°
2026-05-05 16:03 61.42755 23.66358 797 ft 114 kts 249°
2026-05-05 16:04 61.42405 23.64904 629 ft 113 kts 251°
2026-05-05 16:04 61.42066 23.63320 465 ft 124 kts 248°
2026-05-05 16:04 61.41704 23.61728 382 ft 117 kts 246°
2026-05-05 16:04 61.41280 23.59835 753 ft 177 kts 246°
2026-05-05 16:05 61.40632 23.57103 1767 ft 250 kts 244°
2026-05-05 16:05 61.39039 23.56269 1896 ft 273 kts 156°
2026-05-05 16:05 61.37439 23.58186 1920 ft 264 kts 134°
2026-05-05 16:05 61.37346 23.61552 1853 ft 246 kts 58°
2026-05-05 16:06 61.38182 23.64717 1810 ft 246 kts 58°
2026-05-05 16:06 61.39034 23.67820 1668 ft 249 kts 56°
2026-05-05 16:06 61.40096 23.70287 1825 ft 220 kts 11°
2026-05-05 16:06 61.41454 23.69605 1589 ft 194 kts 333°
2026-05-05 16:07 61.42564 23.68529 1277 ft 164 kts 319°
2026-05-05 16:07 61.42764 23.66600 854 ft 143 kts 249°
2026-05-05 16:07 61.42389 23.64769 620 ft 130 kts 245°
2026-05-05 16:07 61.42024 23.63167 424 ft 113 kts 250°
2026-05-05 16:08 61.41696 23.61556 494 ft 138 kts 238°
2026-05-05 16:08 61.41151 23.59428 1204 ft 201 kts 245°
2026-05-05 16:08 61.40280 23.56611 1865 ft 254 kts 214°
2026-05-05 16:08 61.38609 23.57087 1802 ft 254 kts 155°
2026-05-05 16:09 61.37246 23.59193 1772 ft 244 kts 114°
2026-05-05 16:09 61.37509 23.62390 1663 ft 235 kts 60°
2026-05-05 16:09 61.38269 23.65591 1639 ft 259 kts 60°
2026-05-05 16:09 61.39115 23.69052 1654 ft 280 kts 59°
2026-05-05 16:10 61.40263 23.72190 1870 ft 256 kts 19°
2026-05-05 16:10 61.41769 23.71582 1736 ft 216 kts 323°
2026-05-05 16:10 61.42878 23.69671 1387 ft 197 kts 309°
2026-05-05 16:10 61.42987 23.67313 1047 ft 177 kts 244°
2026-05-05 16:11 61.42439 23.64920 667 ft 190 kts 246°
2026-05-05 16:11 61.40354 23.56421 1799 ft 270 kts 221°
2026-05-05 16:12 61.38530 23.56622 1779 ft 284 kts 158°
2026-05-05 16:12 61.37509 23.62688 1808 ft 272 kts 59°
2026-05-05 16:13 61.40619 23.71147 1758 ft 196 kts 341°
2026-05-05 16:13 61.41772 23.70113 1477 ft 171 kts 330°
2026-05-05 16:13 61.42650 23.68938 1334 ft 132 kts 307°
2026-05-05 16:14 61.42473 23.65252 746 ft 131 kts 248°
2026-05-05 16:14 61.41800 23.62112 374 ft 110 kts 244°
2026-05-05 16:15 61.41417 23.60444 391 ft 34 kts 244°
2026-05-05 16:15 61.41234 23.59647 386 ft 27 kts 243°
2026-05-05 16:16 61.41061 23.59220 392 ft 16 kts 160°
2026-05-05 16:16 61.40976 23.59558 390 ft 12 kts 93°
2026-05-05 16:17 61.40945 23.59893 385 ft 12 kts 113°
2026-05-05 16:17 61.40911 23.60033 384 ft 11 kts 124°
2026-05-05 16:18 61.40754 23.60380 374 ft 17 kts 129°
2026-05-05 16:18 61.40703 23.60607 369 ft 18 kts 97°
2026-05-05 16:18 61.40725 23.61003 372 ft 10 kts 95°
2026-05-05 16:19 61.40715 23.61120 373 ft 8 kts 100°
2026-05-05 16:19 61.40710 23.61261 369 ft 12 kts 86°
2026-05-05 16:19 61.40774 23.61516 372 ft 8 kts 41°
2026-05-05 16:20 61.40842 23.61699 375 ft 10 kts 64°
2026-05-05 16:20 61.40873 23.61782 377 ft 0 kts 329°